Location: Doschendorf
(50.0069°N, 11.0602°E)
Time: 07:29:21
(UTC+00:00)

Meteor 2-11 Rocket - Pass Details

Date: 17 November 2019
Orbit: 940 x 956 km, 82.5° (Epoch: 13 December)

Event Time Altitude Azimuth Distance (km) Brightness Sun altitude
Rises 17:24:12 0° 349° (N) 3,627 7.5 -18.2°
Reaches altitude 10° 17:26:42 10° 349° (N) 2,680 6.8 -18.6°
Maximum altitude 17:32:50 88° 265° (W) 958 4.4 -19.6°
Drops below altitude 10° 17:38:59 10° 173° (S) 2,673 6.8 -20.5°
Sets 17:41:27 0° 173° (S) 3,616 7.5 -20.9°
